| time (UTC) | temp C | wind direction | speed KPH | gust KPH | rain 1hr cm | rain 24hr cm | rain mn cm | humidity % | barometer mb |
| 20260905223022 | 18 | 243 | 0.0 | 3.2 | 0.00 | 0.23 | 0.00 | 73 | 1024.9 |
| 20260905222522 | 18 | 248 | 1.6 | 4.8 | 0.00 | 0.23 | 0.00 | 73 | 1024.8 |
| 20260905222021 | 18 | 236 | 1.6 | 6.4 | 0.00 | 0.23 | 0.00 | 72 | 1024.8 |
| 20260905221522 | 18 | 250 | 1.6 | 6.4 | 0.00 | 0.23 | 0.00 | 72 | 1024.6 |
| 20260905221021 | 19 | 248 | 3.2 | 9.7 | 0.00 | 0.23 | 0.00 | 71 | 1024.7 |
| 20260905220521 | 19 | 254 | 3.2 | 9.7 | 0.00 | 0.23 | 0.00 | 71 | 1024.6 |
| 20260905220017 | 19 | 35 | 3.2 | 11.3 | 0.00 | 0.23 | 0.00 | 71 | 1024.5 |
| 20260905215954 | 19 | 245 | 3.2 | 11.3 | 0.00 | 0.23 | 0.23 | 70 | 1024.4 |
| 20260905215007 | 19 | 223 | 3.2 | 11.3 | 0.00 | 0.23 | 0.23 | 70 | 1024.3 |
| 20260905214507 | 19 | 189 | 3.2 | 11.3 | 0.00 | 0.23 | 0.23 | 69 | 1024.2 |
| 20260905214006 | 20 | 221 | 3.2 | 11.3 | 0.00 | 0.23 | 0.23 | 69 | 1024.1 |
| 20260905213509 | 20 | 228 | 3.2 | 11.3 | 0.00 | 0.23 | 0.23 | 69 | 1024.0 |
| 20260905213008 | 20 | 235 | 3.2 | 9.7 | 0.00 | 0.23 | 0.23 | 68 | 1024.0 |
| 20260905212507 | 20 | 255 | 4.8 | 16.1 | 0.00 | 0.23 | 0.23 | 67 | 1024.0 |
| 20260905212003 | 20 | 217 | 4.8 | 16.1 | 0.00 | 0.23 | 0.23 | 67 | 1024.0 |
| 20260905211503 | 20 | 232 | 4.8 | 17.7 | 0.00 | 0.23 | 0.23 | 66 | 1023.8 |
| 20260905211002 | 20 | 219 | 4.8 | 17.7 | 0.00 | 0.23 | 0.23 | 66 | 1023.8 |
| 20260905210502 | 20 | 241 | 4.8 | 12.9 | 0.00 | 0.23 | 0.23 | 66 | 1023.8 |
| 20260905210002 | 20 | 131 | 6.4 | 12.9 | 0.00 | 0.23 | 0.23 | 65 | 1023.7 |
| 20260905205503 | 21 | 127 | 6.4 | 17.7 | 0.00 | 0.23 | 0.23 | 65 | 1023.6 |
| 20260905204958 | 21 | 172 | 4.8 | 17.7 | 0.00 | 0.23 | 0.23 | 65 | 1023.8 |
| 20260905204500 | 21 | 217 | 4.8 | 14.5 | 0.00 | 0.23 | 0.23 | 65 | 1023.7 |
| 20260905203953 | 21 | 216 | 4.8 | 16.1 | 0.00 | 0.23 | 0.23 | 65 | 1023.7 |
| 20260905203446 | 21 | 225 | 4.8 | 16.1 | 0.00 | 0.23 | 0.23 | 64 | 1023.7 |
| 20260905203427 | 21 | 226 | 6.4 | 16.1 | 0.00 | 0.23 | 0.23 | 64 | 1023.7 |
| 20260905202435 | 21 | 245 | 6.4 | 17.7 | 0.00 | 0.23 | 0.23 | 64 | 1023.6 |
| 20260905201929 | 21 | 249 | 4.8 | 17.7 | 0.00 | 0.23 | 0.23 | 64 | 1023.6 |
| 20260905201424 | 21 | 223 | 4.8 | 14.5 | 0.00 | 0.23 | 0.23 | 64 | 1023.6 |
| 20260905201408 | 21 | 223 | 4.8 | 14.5 | 0.00 | 0.23 | 0.23 | 64 | 1023.6 |
| 20260905200411 | 21 | 238 | 4.8 | 12.9 | 0.00 | 0.23 | 0.23 | 64 | 1023.6 |
| 20260905195905 | 21 | 193 | 4.8 | 12.9 | 0.00 | 0.23 | 0.23 | 64 | 1023.5 |
| 20260905195400 | 21 | 139 | 4.8 | 16.1 | 0.00 | 0.23 | 0.23 | 63 | 1023.6 |
| 20260905194853 | 21 | 214 | 4.8 | 16.1 | 0.00 | 0.23 | 0.23 | 63 | 1023.4 |
| 20260905194347 | 21 | 223 | 6.4 | 16.1 | 0.00 | 0.23 | 0.23 | 63 | 1023.4 |
| 20260905193841 | 21 | 229 | 4.8 | 16.1 | 0.00 | 0.23 | 0.23 | 63 | 1023.3 |
| 20260905193335 | 21 | 139 | 4.8 | 16.1 | 0.00 | 0.23 | 0.23 | 63 | 1023.3 |
| 20260905192830 | 21 | 250 | 4.8 | 16.1 | 0.00 | 0.23 | 0.23 | 63 | 1023.3 |
| 20260905192324 | 21 | 236 | 3.2 | 11.3 | 0.00 | 0.23 | 0.23 | 63 | 1023.3 |
| 20260905191817 | 21 | 129 | 3.2 | 14.5 | 0.00 | 0.23 | 0.23 | 63 | 1023.2 |
| 20260905191312 | 21 | 223 | 3.2 | 11.3 | 0.00 | 0.23 | 0.23 | 63 | 1023.2 |
| 20260905191253 | 21 | 256 | 3.2 | 11.3 | 0.00 | 0.23 | 0.23 | 63 | 1023.1 |
| 20260905190259 | 21 | 255 | 1.6 | 9.7 | 0.00 | 0.23 | 0.23 | 62 | 1023.2 |
| 20260905190240 | 21 | 227 | 3.2 | 12.9 | 0.00 | 0.23 | 0.23 | 62 | 1023.1 |
| 20260905185248 | 21 | 235 | 3.2 | 12.9 | 0.00 | 0.23 | 0.23 | 61 | 1023.0 |
| 20260905184940 | 21 | 243 | 1.6 | 12.9 | 0.00 | 0.23 | 0.23 | 62 | 1022.9 |
| 20260905184932 | 21 | 237 | 3.2 | 12.9 | 0.00 | 0.23 | 0.23 | 61 | 1022.9 |
| 20260905183729 | 21 | 163 | 1.6 | 8.0 | 0.00 | 0.23 | 0.23 | 62 | 1022.8 |
| 20260905183223 | 22 | 162 | 1.6 | 8.0 | 0.00 | 0.23 | 0.23 | 61 | 1022.7 |
| 20260905183203 | 22 | 242 | 1.6 | 9.7 | 0.00 | 0.23 | 0.23 | 61 | 1022.8 |
| 20260905182211 | 22 | 236 | 1.6 | 11.3 | 0.00 | 0.23 | 0.23 | 61 | 1022.6 |
| 20260905181718 | 22 | 225 | 1.6 | 11.3 | 0.00 | 0.23 | 0.23 | 61 | 1022.6 |
| 20260905181400 | 22 | 180 | 1.6 | 9.7 | 0.00 | 0.23 | 0.23 | 60 | 1022.5 |
| 20260905181346 | 22 | 224 | 1.6 | 9.7 | 0.00 | 0.23 | 0.23 | 60 | 1022.5 |
| 20260905181341 | 22 | 231 | 1.6 | 9.7 | 0.00 | 0.23 | 0.23 | 60 | 1022.6 |
| 20260905175641 | 22 | 265 | 1.6 | 11.3 | 0.00 | 0.23 | 0.23 | 60 | 1022.4 |
| 20260905175135 | 22 | 237 | 3.2 | 11.3 | 0.00 | 0.23 | 0.23 | 59 | 1022.3 |
| 20260905174630 | 22 | 152 | 1.6 | 9.7 | 0.00 | 0.23 | 0.23 | 59 | 1022.2 |
| 20260905174126 | 22 | 207 | 1.6 | 8.0 | 0.00 | 0.23 | 0.23 | 58 | 1022.1 |
| 20260905173617 | 22 | 233 | 1.6 | 6.4 | 0.00 | 0.23 | 0.23 | 58 | 1022.1 |
| 20260905173111 | 22 | 217 | 1.6 | 6.4 | 0.00 | 0.23 | 0.23 | 57 | 1022.0 |
| 20260905172605 | 23 | 231 | 3.2 | 9.7 | 0.00 | 0.23 | 0.23 | 57 | 1022.0 |
| 20260905172115 | 23 | 233 | 3.2 | 9.7 | 0.00 | 0.23 | 0.23 | 56 | 1021.9 |
| 20260905171555 | 23 | 218 | 3.2 | 11.3 | 0.00 | 0.23 | 0.23 | 56 | 1021.9 |
| 20260905171047 | 23 | 276 | 3.2 | 11.3 | 0.00 | 0.23 | 0.23 | 56 | 1021.9 |
| 20260905170541 | 23 | 257 | 4.8 | 12.9 | 0.00 | 0.23 | 0.23 | 55 | 1021.8 |
| 20260905170037 | 23 | 260 | 4.8 | 12.9 | 0.00 | 0.23 | 0.23 | 54 | 1021.8 |
| 20260905170015 | 24 | 224 | 4.8 | 17.7 | 0.00 | 0.23 | 0.23 | 53 | 1021.6 |
| 20260905165026 | 24 | 230 | 4.8 | 17.7 | 0.00 | 0.23 | 0.23 | 52 | 1021.6 |
| 20260905164517 | 24 | 119 | 4.8 | 14.5 | 0.00 | 0.23 | 0.23 | 52 | 1021.6 |
| 20260905164010 | 24 | 253 | 4.8 | 16.1 | 0.00 | 0.23 | 0.23 | 51 | 1021.5 |
| 20260905163511 | 24 | 214 | 4.8 | 16.1 | 0.00 | 0.23 | 0.23 | 51 | 1021.5 |
| 20260905163010 | 24 | 259 | 6.4 | 14.5 | 0.00 | 0.23 | 0.23 | 51 | 1021.5 |
| 20260905162958 | 24 | 270 | 4.8 | 14.5 | 0.00 | 0.23 | 0.23 | 52 | 1021.4 |
| 20260905162008 | 24 | 228 | 4.8 | 14.5 | 0.00 | 0.23 | 0.23 | 53 | 1021.3 |
| 20260905161508 | 23 | 231 | 4.8 | 14.5 | 0.00 | 0.23 | 0.23 | 54 | 1021.3 |
| 20260905161008 | 24 | 39 | 4.8 | 19.3 | 0.00 | 0.23 | 0.23 | 53 | 1021.4 |
| 20260905160510 | 24 | 218 | 4.8 | 19.3 | 0.00 | 0.23 | 0.23 | 53 | 1021.3 |
| 20260905160006 | 24 | 142 | 4.8 | 19.3 | 0.00 | 0.23 | 0.23 | 52 | 1021.3 |
| 20260905155506 | 25 | 194 | 4.8 | 19.3 | 0.00 | 0.23 | 0.23 | 52 | 1021.3 |
| 20260905155005 | 24 | 214 | 6.4 | 19.3 | 0.00 | 0.23 | 0.23 | 53 | 1021.4 |
| 20260905154955 | 24 | 201 | 8.0 | 19.3 | 0.00 | 0.23 | 0.23 | 53 | 1021.3 |
| 20260905154004 | 25 | 221 | 6.4 | 20.9 | 0.00 | 0.23 | 0.23 | 53 | 1021.4 |
| 20260905153505 | 24 | 195 | 6.4 | 20.9 | 0.00 | 0.23 | 0.23 | 53 | 1021.3 |
| 20260905153002 | 24 | 141 | 4.8 | 19.3 | 0.00 | 0.23 | 0.23 | 53 | 1021.2 |
| 20260905152502 | 25 | 257 | 4.8 | 19.3 | 0.00 | 0.23 | 0.23 | 53 | 1021.1 |
| 20260905152004 | 25 | 158 | 6.4 | 17.7 | 0.00 | 0.23 | 0.23 | 53 | 1021.1 |
| 20260905151501 | 25 | 200 | 6.4 | 22.5 | 0.00 | 0.23 | 0.23 | 52 | 1021.0 |
| 20260905151000 | 25 | 251 | 4.8 | 22.5 | 0.00 | 0.23 | 0.23 | 52 | 1021.1 |
| 20260905150454 | 25 | 224 | 6.4 | 19.3 | 0.00 | 0.23 | 0.23 | 53 | 1021.1 |
| 20260905145949 | 25 | 243 | 8.0 | 19.3 | 0.00 | 0.23 | 0.23 | 52 | 1021.2 |
| 20260905145927 | 25 | 227 | 6.4 | 17.7 | 0.00 | 0.23 | 0.23 | 54 | 1021.1 |
| 20260905144935 | 25 | 246 | 6.4 | 17.7 | 0.00 | 0.23 | 0.23 | 54 | 1021.2 |
| 20260905144430 | 25 | 192 | 6.4 | 17.7 | 0.00 | 0.23 | 0.23 | 54 | 1021.1 |
| 20260905143923 | 25 | 160 | 6.4 | 17.7 | 0.00 | 0.23 | 0.23 | 54 | 1021.1 |
| 20260905143418 | 25 | 219 | 6.4 | 16.1 | 0.00 | 0.23 | 0.23 | 55 | 1021.0 |
| 20260905142912 | 25 | 169 | 8.0 | 17.7 | 0.00 | 0.23 | 0.23 | 55 | 1021.1 |
| 20260905142408 | 24 | 226 | 9.7 | 22.5 | 0.00 | 0.23 | 0.23 | 55 | 1021.1 |
| 20260905142356 | 24 | 258 | 8.0 | 22.5 | 0.00 | 0.23 | 0.23 | 55 | 1021.1 |
| 20260905141354 | 25 | 155 | 8.0 | 16.1 | 0.00 | 0.23 | 0.23 | 55 | 1021.1 |
| 20260905140848 | 24 | 199 | 9.7 | 22.5 | 0.00 | 0.23 | 0.23 | 56 | 1021.1 |
| 20260905140342 | 24 | 197 | 8.0 | 22.5 | 0.00 | 0.23 | 0.23 | 57 | 1021.2 |
| 20260905135839 | 24 | 212 | 8.0 | 19.3 | 0.00 | 0.23 | 0.23 | 56 | 1021.1 |
| 20260905135332 | 24 | 177 | 8.0 | 17.7 | 0.00 | 0.23 | 0.23 | 57 | 1021.2 |
| 20260905134825 | 24 | 85 | 9.7 | 22.5 | 0.00 | 0.23 | 0.23 | 57 | 1021.3 |
| 20260905134319 | 24 | 205 | 8.0 | 22.5 | 0.00 | 0.23 | 0.23 | 56 | 1021.3 |
| 20260905133812 | 24 | 292 | 8.0 | 22.5 | 0.00 | 0.23 | 0.23 | 57 | 1021.3 |
| 20260905133310 | 24 | 224 | 8.0 | 24.1 | 0.00 | 0.23 | 0.23 | 57 | 1021.3 |
| 20260905132810 | 23 | 330 | 8.0 | 24.1 | 0.00 | 0.23 | 0.23 | 56 | 1021.3 |
| 20260905132310 | 23 | 162 | 9.7 | 24.1 | 0.00 | 0.23 | 0.23 | 58 | 1021.4 |
| 20260905131808 | 23 | 181 | 9.7 | 25.7 | 0.00 | 0.23 | 0.23 | 58 | 1021.4 |
| 20260905131311 | 23 | 255 | 8.0 | 25.7 | 0.00 | 0.23 | 0.23 | 57 | 1021.4 |
| 20260905130808 | 23 | 182 | 9.7 | 25.7 | 0.00 | 0.23 | 0.23 | 58 | 1021.6 |
| 20260905130306 | 23 | 164 | 12.9 | 25.7 | 0.00 | 0.23 | 0.23 | 59 | 1021.6 |
| 20260905125806 | 23 | 229 | 9.7 | 24.1 | 0.00 | 0.23 | 0.23 | 58 | 1021.5 |
| 20260905125306 | 23 | 261 | 8.0 | 20.9 | 0.00 | 0.23 | 0.23 | 59 | 1021.7 |
| 20260905124806 | 23 | 248 | 11.3 | 20.9 | 0.00 | 0.23 | 0.23 | 59 | 1021.6 |
| 20260905124307 | 23 | 211 | 9.7 | 25.7 | 0.00 | 0.23 | 0.23 | 60 | 1021.6 |
| 20260905123807 | 23 | 241 | 8.0 | 25.7 | 0.00 | 0.23 | 0.23 | 59 | 1021.7 |
| 20260905123751 | 23 | 183 | 9.7 | 22.5 | 0.00 | 0.23 | 0.23 | 60 | 1021.7 |
| 20260905122806 | 23 | 238 | 9.7 | 19.3 | 0.00 | 0.23 | 0.23 | 60 | 1021.6 |
| 20260905122309 | 23 | 279 | 8.0 | 19.3 | 0.00 | 0.23 | 0.23 | 60 | 1021.7 |
| 20260905121806 | 23 | 206 | 8.0 | 19.3 | 0.00 | 0.23 | 0.23 | 60 | 1021.7 |
| 20260905121300 | 23 | 270 | 6.4 | 19.3 | 0.00 | 0.23 | 0.23 | 61 | 1021.6 |
| 20260905120756 | 23 | 200 | 8.0 | 20.9 | 0.00 | 0.23 | 0.23 | 61 | 1021.8 |
| 20260905120248 | 23 | 229 | 9.7 | 27.4 | 0.00 | 0.23 | 0.23 | 62 | 1021.8 |
| 20260905115742 | 22 | 203 | 9.7 | 27.4 | 0.00 | 0.23 | 0.23 | 63 | 1021.8 |
| 20260905115236 | 23 | 248 | 8.0 | 22.5 | 0.00 | 0.23 | 0.23 | 62 | 1021.8 |
| 20260905114731 | 22 | 214 | 8.0 | 22.5 | 0.00 | 0.23 | 0.23 | 63 | 1021.7 |
| 20260905114224 | 22 | 230 | 8.0 | 22.5 | 0.00 | 0.23 | 0.23 | 63 | 1021.8 |
| 20260905113718 | 22 | 105 | 6.4 | 16.1 | 0.00 | 0.23 | 0.23 | 64 | 1021.9 |
| 20260905113212 | 22 | 206 | 4.8 | 14.5 | 0.00 | 0.23 | 0.23 | 64 | 1021.9 |
| 20260905112706 | 22 | 232 | 6.4 | 19.3 | 0.00 | 0.23 | 0.23 | 65 | 1022.0 |
| 20260905112200 | 22 | 146 | 8.0 | 19.3 | 0.00 | 0.23 | 0.23 | 66 | 1021.9 |
| 20260905111654 | 22 | 252 | 6.4 | 22.5 | 0.00 | 0.23 | 0.23 | 66 | 1021.9 |
| 20260905111148 | 22 | 218 | 6.4 | 22.5 | 0.00 | 0.23 | 0.23 | 65 | 1022.0 |
| 20260905110642 | 21 | 226 | 8.0 | 17.7 | 0.00 | 0.23 | 0.23 | 69 | 1021.9 |
| 20260905110135 | 21 | 213 | 9.7 | 20.9 | 0.00 | 0.23 | 0.23 | 69 | 1021.9 |
| 20260905105630 | 21 | 288 | 11.3 | 29.0 | 0.00 | 0.23 | 0.23 | 71 | 1022.0 |
| 20260905105123 | 20 | 209 | 12.9 | 29.0 | 0.00 | 0.23 | 0.23 | 71 | 1022.1 |
| 20260905104618 | 20 | 250 | 9.7 | 25.7 | 0.00 | 0.23 | 0.23 | 71 | 1022.1 |
| 20260905104112 | 20 | 216 | 9.7 | 22.5 | 0.00 | 0.23 | 0.23 | 72 | 1022.0 |
| 20260905103606 | 20 | 194 | 9.7 | 24.1 | 0.00 | 0.23 | 0.23 | 73 | 1022.1 |
| 20260905103100 | 20 | 302 | 8.0 | 24.1 | 0.00 | 0.23 | 0.23 | 73 | 1022.1 |
| 20260905102554 | 20 | 245 | 11.3 | 27.4 | 0.00 | 0.23 | 0.23 | 73 | 1022.0 |
| 20260905102050 | 20 | 215 | 11.3 | 30.6 | 0.00 | 0.23 | 0.23 | 73 | 1022.0 |
| 20260905101544 | 20 | 207 | 8.0 | 30.6 | 0.00 | 0.23 | 0.23 | 75 | 1022.2 |
| 20260905101036 | 19 | 198 | 6.4 | 19.3 | 0.00 | 0.23 | 0.23 | 77 | 1022.1 |
| 20260905100530 | 19 | 210 | 8.0 | 19.3 | 0.00 | 0.23 | 0.23 | 76 | 1022.1 |
| 20260905100024 | 18 | 195 | 8.0 | 20.9 | 0.03 | 0.23 | 0.23 | 76 | 1022.2 |
| 20260905095522 | 18 | 159 | 8.0 | 20.9 | 0.03 | 0.23 | 0.23 | 77 | 1022.2 |
| 20260905095022 | 18 | 46 | 6.4 | 20.9 | 0.03 | 0.23 | 0.23 | 77 | 1022.3 |
| 20260905094520 | 18 | 207 | 6.4 | 20.9 | 0.03 | 0.23 | 0.23 | 78 | 1022.2 |
| 20260905094020 | 18 | 231 | 4.8 | 19.3 | 0.03 | 0.23 | 0.23 | 79 | 1022.2 |
| 20260905093520 | 18 | 206 | 3.2 | 19.3 | 0.03 | 0.23 | 0.23 | 80 | 1022.2 |
| 20260905093018 | 18 | 139 | 3.2 | 12.9 | 0.03 | 0.23 | 0.23 | 81 | 1022.3 |
| 20260905092519 | 17 | 276 | 3.2 | 12.9 | 0.03 | 0.23 | 0.23 | 81 | 1022.3 |
| 20260905092020 | 17 | 223 | 3.2 | 12.9 | 0.03 | 0.23 | 0.23 | 81 | 1022.3 |
| 20260905091518 | 17 | 258 | 3.2 | 12.9 | 0.05 | 0.23 | 0.23 | 81 | 1022.3 |
| 20260905091018 | 17 | 264 | 4.8 | 16.1 | 0.05 | 0.23 | 0.23 | 82 | 1022.2 |
| 20260905090516 | 17 | 198 | 4.8 | 16.1 | 0.05 | 0.23 | 0.23 | 82 | 1022.2 |
| 20260905090016 | 17 | 253 | 3.2 | 14.5 | 0.03 | 0.20 | 0.20 | 83 | 1022.1 |
| 20260905085515 | 17 | 231 | 3.2 | 14.5 | 0.03 | 0.20 | 0.20 | 83 | 1022.0 |
| 20260905085012 | 17 | 252 | 3.2 | 11.3 | 0.03 | 0.20 | 0.20 | 83 | 1022.0 |
| 20260905084513 | 16 | 226 | 3.2 | 12.9 | 0.03 | 0.20 | 0.20 | 82 | 1022.0 |
| 20260905084012 | 16 | 193 | 4.8 | 14.5 | 0.03 | 0.20 | 0.20 | 82 | 1022.1 |
| 20260905083510 | 16 | 214 | 4.8 | 14.5 | 0.03 | 0.20 | 0.20 | 82 | 1022.2 |
| 20260905083006 | 16 | 203 | 6.4 | 14.5 | 0.03 | 0.20 | 0.20 | 82 | 1022.3 |
| 20260905082506 | 16 | 208 | 6.4 | 14.5 | 0.03 | 0.20 | 0.20 | 81 | 1022.3 |
| 20260905082006 | 16 | 191 | 6.4 | 12.9 | 0.03 | 0.20 | 0.20 | 81 | 1022.5 |
| 20260905081506 | 16 | 174 | 6.4 | 12.9 | 0.00 | 0.18 | 0.18 | 82 | 1022.5 |
| 20260905081008 | 16 | 76 | 6.4 | 14.5 | 0.00 | 0.18 | 0.18 | 82 | 1022.2 |
| 20260905080506 | 16 | 177 | 8.0 | 16.1 | 0.00 | 0.18 | 0.18 | 82 | 1022.4 |
| 20260905080006 | 16 | 129 | 8.0 | 16.1 | 0.00 | 0.18 | 0.18 | 83 | 1022.6 |
| 20260905075506 | 16 | 221 | 6.4 | 12.9 | 0.03 | 0.18 | 0.18 | 83 | 1022.5 |
| 20260905075005 | 16 | 126 | 4.8 | 12.9 | 0.03 | 0.18 | 0.18 | 83 | 1022.6 |
| 20260905074503 | 16 | 233 | 3.2 | 9.7 | 0.05 | 0.18 | 0.18 | 83 | 1022.8 |
| 20260905074002 | 16 | 89 | 3.2 | 9.7 | 0.05 | 0.18 | 0.18 | 83 | 1022.5 |
| 20260905073502 | 16 | 174 | 3.2 | 12.9 | 0.05 | 0.18 | 0.18 | 83 | 1022.6 |
| 20260905073003 | 16 | 212 | 3.2 | 12.9 | 0.05 | 0.18 | 0.18 | 84 | 1022.6 |
| 20260905072502 | 16 | 225 | 1.6 | 9.7 | 0.05 | 0.18 | 0.18 | 84 | 1022.6 |
| 20260905072002 | 16 | 238 | 1.6 | 8.0 | 0.05 | 0.18 | 0.18 | 84 | 1022.8 |
| 20260905071502 | 16 | 228 | 1.6 | 8.0 | 0.05 | 0.18 | 0.18 | 84 | 1022.6 |
| 20260905071002 | 16 | 231 | 0.0 | 4.8 | 0.05 | 0.18 | 0.18 | 84 | 1022.4 |
| 20260905070503 | 16 | 233 | 0.0 | 3.2 | 0.05 | 0.18 | 0.18 | 83 | 1022.0 |
| 20260905065958 | 16 | 233 | 1.6 | 9.7 | 0.05 | 0.18 | 0.18 | 82 | 1022.0 |
| 20260905065458 | 16 | 214 | 1.6 | 9.7 | 0.05 | 0.15 | 0.15 | 80 | 1022.0 |
| 20260905065001 | 16 | 224 | 3.2 | 8.0 | 0.05 | 0.15 | 0.15 | 79 | 1022.8 |
| 20260905064457 | 16 | 208 | 1.6 | 8.0 | 0.05 | 0.15 | 0.15 | 77 | 1022.8 |
| 20260905063958 | 17 | 229 | 1.6 | 9.7 | 0.03 | 0.13 | 0.13 | 76 | 1022.4 |
| 20260905063458 | 17 | 127 | 3.2 | 9.7 | 0.03 | 0.13 | 0.13 | 74 | 1022.5 |
| 20260905062958 | 17 | 232 | 1.6 | 9.7 | 0.03 | 0.13 | 0.13 | 73 | 1022.3 |
| 20260905062457 | 17 | 229 | 3.2 | 12.9 | 0.03 | 0.13 | 0.13 | 71 | 1022.0 |
| 20260905061958 | 17 | 238 | 4.8 | 12.9 | 0.03 | 0.13 | 0.13 | 70 | 1021.7 |
| 20260905061454 | 18 | 171 | 8.0 | 22.5 | 0.03 | 0.13 | 0.13 | 69 | 1021.8 |
| 20260905060954 | 18 | 219 | 8.0 | 22.5 | 0.03 | 0.13 | 0.13 | 67 | 1021.6 |
| 20260905060454 | 18 | 220 | 8.0 | 22.5 | 0.03 | 0.13 | 0.13 | 67 | 1021.5 |
| 20260905055954 | 18 | 204 | 8.0 | 22.5 | 0.03 | 0.13 | 0.13 | 65 | 1021.6 |
| 20260905055454 | 19 | 210 | 6.4 | 27.4 | 0.03 | 0.13 | 0.13 | 64 | 1021.6 |
| 20260905054954 | 19 | 78 | 8.0 | 27.4 | 0.03 | 0.13 | 0.13 | 62 | 1021.2 |
| 20260905054454 | 19 | 246 | 6.4 | 17.7 | 0.00 | 0.10 | 0.10 | 61 | 1021.4 |
| 20260905053953 | 19 | 233 | 6.4 | 17.7 | 0.00 | 0.10 | 0.10 | 61 | 1021.1 |
| 20260905053455 | 19 | 236 | 8.0 | 17.7 | 0.00 | 0.10 | 0.10 | 61 | 1021.3 |
| 20260905052950 | 19 | 264 | 8.0 | 16.1 | 0.00 | 0.10 | 0.10 | 61 | 1020.5 |
| 20260905052450 | 19 | 236 | 8.0 | 17.7 | 0.00 | 0.10 | 0.10 | 62 | 1020.4 |
| 20260905052438 | 19 | 274 | 8.0 | 17.7 | 0.00 | 0.10 | 0.10 | 62 | 1020.2 |
| 20260905051449 | 19 | 248 | 8.0 | 19.3 | 0.00 | 0.10 | 0.10 | 62 | 1020.2 |
| 20260905050950 | 19 | 256 | 6.4 | 19.3 | 0.00 | 0.10 | 0.10 | 63 | 1020.1 |
| 20260905050450 | 19 | 225 | 6.4 | 17.7 | 0.00 | 0.10 | 0.10 | 64 | 1019.5 |
| 20260905045950 | 19 | 277 | 6.4 | 20.9 | 0.00 | 0.10 | 0.10 | 64 | 1019.6 |
| 20260905045450 | 19 | 212 | 4.8 | 20.9 | 0.00 | 0.10 | 0.10 | 66 | 1019.5 |
| 20260905044950 | 18 | 124 | 3.2 | 16.1 | 0.00 | 0.10 | 0.10 | 67 | 1018.8 |
| 20260905044450 | 18 | 257 | 3.2 | 12.9 | 0.00 | 0.10 | 0.10 | 69 | 1019.2 |
| 20260905043950 | 18 | 247 | 3.2 | 12.9 | 0.03 | 0.10 | 0.10 | 70 | 1019.4 |
| 20260905043449 | 18 | 254 | 3.2 | 16.1 | 0.03 | 0.10 | 0.10 | 71 | 1019.4 |
| 20260905042950 | 18 | 240 | 4.8 | 16.1 | 0.03 | 0.10 | 0.10 | 71 | 1019.7 |
| 20260905042449 | 18 | 263 | 3.2 | 12.9 | 0.03 | 0.10 | 0.10 | 70 | 1019.6 |
| 20260905041950 | 18 | 220 | 3.2 | 11.3 | 0.03 | 0.10 | 0.10 | 71 | 1019.0 |
| 20260905041451 | 18 | 239 | 3.2 | 9.7 | 0.03 | 0.10 | 0.10 | 75 | 1018.9 |
| 20260905040951 | 18 | 251 | 1.6 | 8.0 | 0.03 | 0.10 | 0.10 | 76 | 1019.2 |
| 20260905040449 | 18 | 239 | 0.0 | 6.4 | 0.03 | 0.10 | 0.10 | 76 | 1018.7 |
| 20260905035944 | 18 | 224 | 0.0 | 8.0 | 0.03 | 0.10 | 0.10 | 76 | 1018.6 |
| 20260905035438 | 19 | 232 | 1.6 | 8.0 | 0.03 | 0.10 | 0.10 | 73 | 1018.6 |
| 20260905034933 | 20 | 252 | 3.2 | 11.3 | 0.03 | 0.10 | 0.10 | 72 | 1018.8 |
| 20260905034426 | 20 | 226 | 4.8 | 16.1 | 0.03 | 0.10 | 0.10 | 70 | 1019.1 |
| 20260905034406 | 21 | 245 | 4.8 | 16.1 | 0.03 | 0.08 | 0.08 | 67 | 1019.2 |
| 20260905033414 | 21 | 261 | 3.2 | 12.9 | 0.03 | 0.08 | 0.08 | 66 | 1018.7 |
| 20260905032908 | 21 | 214 | 3.2 | 11.3 | 0.03 | 0.08 | 0.08 | 67 | 1018.3 |
| 20260905032402 | 21 | 233 | 4.8 | 14.5 | 0.03 | 0.08 | 0.08 | 69 | 1018.1 |
| 20260905031856 | 21 | 261 | 3.2 | 14.5 | 0.03 | 0.08 | 0.08 | 69 | 1017.9 |
| 20260905031353 | 21 | 260 | 4.8 | 19.3 | 0.03 | 0.08 | 0.08 | 70 | 1017.9 |
| 20260905030845 | 21 | 266 | 3.2 | 19.3 | 0.03 | 0.08 | 0.08 | 72 | 1017.7 |
| 20260905030339 | 21 | 226 | 3.2 | 14.5 | 0.05 | 0.08 | 0.08 | 73 | 1017.8 |
| 20260905025834 | 21 | 235 | 6.4 | 19.3 | 0.08 | 0.08 | 0.08 | 74 | 1017.7 |
| 20260905025326 | 21 | 226 | 8.0 | 19.3 | 0.08 | 0.08 | 0.08 | 76 | 1017.2 |
| 20260905024821 | 21 | 238 | 4.8 | 19.3 | 0.08 | 0.08 | 0.08 | 77 | 1016.7 |
| 20260905024314 | 21 | 227 | 3.2 | 12.9 | 0.05 | 0.05 | 0.08 | 76 | 1016.2 |
| 20260905023809 | 21 | 250 | 4.8 | 9.7 | 0.05 | 0.05 | 0.05 | 75 | 1015.5 |
| 20260905023303 | 21 | 214 | 4.8 | 9.7 | 0.05 | 0.05 | 0.05 | 73 | 1015.4 |
| 20260905022755 | 21 | 204 | 4.8 | 8.0 | 0.05 | 0.05 | 0.05 | 72 | 1015.4 |
| 20260905022251 | 22 | 201 | 4.8 | 8.0 | 0.05 | 0.05 | 0.05 | 72 | 1015.4 |
| 20260905021744 | 22 | 238 | 4.8 | 12.9 | 0.05 | 0.05 | 0.05 | 70 | 1015.4 |
| 20260905021239 | 22 | 193 | 6.4 | 19.3 | 0.05 | 0.05 | 0.05 | 67 | 1015.3 |
| 20260905020732 | 23 | 226 | 4.8 | 19.3 | 0.05 | 0.05 | 0.05 | 64 | 1015.6 |
| 20260905020226 | 23 | 229 | 1.6 | 8.0 | 0.03 | 0.03 | 0.03 | 60 | 1015.8 |
| 20260905015719 | 22 | 207 | 1.6 | 8.0 | 0.00 | 0.00 | 0.00 | 60 | 1015.3 |
| 20260905015217 | 22 | 235 | 1.6 | 8.0 | 0.00 | 0.00 | 0.00 | 62 | 1015.3 |
| 20260905014711 | 21 | 255 | 1.6 | 4.8 | 0.00 | 0.00 | 0.00 | 65 | 1015.1 |
| 20260905014202 | 21 | 246 | 1.6 | 3.2 | 0.00 | 0.00 | 0.00 | 67 | 1015.5 |
| 20260905013657 | 21 | 246 | 0.0 | 3.2 | 0.00 | 0.00 | 0.00 | 67 | 1015.3 |
| 20260905013151 | 20 | 246 | 0.0 | 0.0 | 0.00 | 0.00 | 0.00 | 69 | 1015.3 |
| 20260905012644 | 20 | 246 | 0.0 | 0.0 | 0.00 | 0.00 | 0.00 | 69 | 1015.2 |
| 20260905012139 | 20 | 246 | 0.0 | 0.0 | 0.00 | 0.00 | 0.00 | 69 | 1015.1 |
| 20260905011632 | 20 | 246 | 0.0 | 0.0 | 0.00 | 0.00 | 0.00 | 69 | 1015.2 |
| 20260905011126 | 20 | 246 | 0.0 | 3.2 | 0.00 | 0.00 | 0.00 | 68 | 1015.1 |
| 20260905010621 | 20 | 246 | 0.0 | 3.2 | 0.00 | 0.00 | 0.00 | 67 | 1015.1 |
| 20260905010130 | 20 | 246 | 0.0 | 1.6 | 0.00 | 0.00 | 0.00 | 67 | 1015.0 |
| 20260905005611 | 20 | 246 | 0.0 | 3.2 | 0.00 | 0.00 | 0.00 | 67 | 1014.9 |
| 20260905005105 | 20 | 246 | 0.0 | 3.2 | 0.00 | 0.00 | 0.00 | 67 | 1015.0 |
| 20260905004556 | 20 | 246 | 0.0 | 3.2 | 0.00 | 0.00 | 0.00 | 67 | 1015.0 |
| 20260905004049 | 20 | 247 | 0.0 | 4.8 | 0.00 | 0.00 | 0.00 | 67 | 1015.0 |
| 20260905003544 | 20 | 248 | 1.6 | 4.8 | 0.00 | 0.00 | 0.00 | 67 | 1015.1 |
| 20260905003044 | 20 | 248 | 1.6 | 4.8 | 0.00 | 0.00 | 0.00 | 68 | 1015.1 |
| 20260905002544 | 20 | 248 | 0.0 | 4.8 | 0.00 | 0.00 | 0.00 | 69 | 1015.1 |
| 20260905002042 | 20 | 248 | 0.0 | 4.8 | 0.00 | 0.00 | 0.00 | 70 | 1015.0 |
| 20260905001542 | 19 | 216 | 0.0 | 3.2 | 0.00 | 0.00 | 0.00 | 71 | 1014.8 |
| 20260905001039 | 19 | 213 | 0.0 | 1.6 | 0.00 | 0.00 | 0.00 | 72 | 1014.7 |
| 20260905000538 | 19 | 214 | 0.0 | 1.6 | 0.00 | 0.00 | 0.00 | 71 | 1014.6 |
| 20260905000038 | 19 | 213 | 0.0 | 0.0 | 0.00 | 0.00 | 0.00 | 71 | 1014.7 |
| 20260904235538 | 19 | 214 | 0.0 | 0.0 | 0.00 | 0.00 | 0.00 | 71 | 1014.7 |
| 20260904235037 | 20 | 214 | 0.0 | 0.0 | 0.00 | 0.00 | 0.00 | 71 | 1014.6 |
| 20260904234537 | 20 | 214 | 0.0 | 0.0 | 0.00 | 0.00 | 0.00 | 70 | 1014.6 |
| 20260904234038 | 20 | 214 | 0.0 | 0.0 | 0.00 | 0.00 | 0.00 | 69 | 1014.6 |
| 20260904233535 | 20 | 214 | 0.0 | 0.0 | 0.00 | 0.00 | 0.00 | 69 | 1014.6 |
| 20260904232533 | 20 | 213 | 0.0 | 3.2 | 0.00 | 0.00 | 0.00 | 68 | 1014.7 |
| 20260904232031 | 20 | 214 | 0.0 | 3.2 | 0.00 | 0.00 | 0.00 | 67 | 1014.4 |
| 20260904231530 | 20 | 214 | 0.0 | 3.2 | 0.00 | 0.00 | 0.00 | 67 | 1014.4 |
| 20260904231027 | 20 | 213 | 1.6 | 4.8 | 0.00 | 0.00 | 0.00 | 66 | 1014.6 |
| 20260904230528 | 20 | 84 | 1.6 | 4.8 | 0.00 | 0.00 | 0.00 | 66 | 1014.4 |
| 20260904230025 | 20 | 229 | 0.0 | 3.2 | 0.00 | 0.00 | 0.00 | 67 | 1014.4 |
| 20260904225519 | 20 | 241 | 0.0 | 0.0 | 0.00 | 0.00 | 0.00 | 67 | 1014.2 |
| 20260904225013 | 20 | 241 | 0.0 | 0.0 | 0.00 | 0.00 | 0.00 | 67 | 1014.2 |
| 20260904224507 | 20 | 241 | 0.0 | 0.0 | 0.00 | 0.00 | 0.00 | 67 | 1014.1 |
| 20260904224001 | 20 | 240 | 0.0 | 0.0 | 0.00 | 0.00 | 0.00 | 67 | 1014.1 |
| 20260904223454 | 20 | 241 | 0.0 | 0.0 | 0.00 | 0.00 | 0.00 | 67 | 1014.0 |